Tracking 29892 objects as of 21-Nov-2024
HD Live streaming from Space Station
objects crossing your sky now

FENGYUN 1C DEB

Track FENGYUN 1C DEB now!
10-day predictions


NORAD ID: 32123
Int'l Code: 1999-025CRR
Perigee: 584.8 km
Apogee: 819.4 km
Inclination: 98.9 °
Period: 98.7 minutes
Semi major axis: 7073 km
RCS: 0.0018 m2 (small)
Launch date: May 10, 1999
Source: People's Republic of China (PRC)
Launch site: Taiyaun Space Center, China (TSC)

Note: This is SATELLITE DEBRIS
Your satellite tracking list
Your tracking list is empty




NASA's NSSDC Master Catalog

Two Line Element Set (TLE):
1 32123U 99025CRR 24325.18984090  .00001898  00000-0  34123-3 0  9993
2 32123  98.8985  97.1193 0165861  38.8901  82.1413 14.59447474657170
Source of the keplerian elements: AFSPC